User: anonymous   Login
Location: Erlenbrunn
(49.1717°N, 7.6142°E)
Time: 06:07:32
(UTC+00:00)
Language:

Cosmos 2218 Rocket - Orbit

View from above orbital plane
View from above orbital plane
View from above satellite
View from above satellite

Ground track
Ground track

The orbit data is extracted from the following two-line orbital elements,

1 22208U 92073B   21055.87795308  .00000045  00000-0  30994-4 0  9993
2 22208  82.9155 100.0713 0033126 234.8623 177.0729 13.75160045421104
Epoch (UTC): 24 February 2021 21:04:15
Eccentricity: 0.0033126
inclination: 82.9155°
perigee height: 957 km
apogee height: 1005 km
right ascension of ascending node: 100.0713°
argument of perigee: 234.8623°
revolutions per day: 13.75160045
mean anomaly at epoch: 177.0729°
orbit number at epoch: 42110

The dashed part of the orbit path shows where the satellite is in the earth's shadow,  

DLR